Location: Wells
(51.2093°N, 2.6446°W)
Time: 04:49:34
(UTC+01:00)

STARS - Pass Details

Date: 20 March 2026
Orbit: 575 x 588 km, 98.2° (Epoch: 17 April)

Event Time Altitude Azimuth Distance (km) Brightness Sun altitude
Rises 02:42:03 0° 12° (NNE) 2,802 ? -30.6°
Reaches altitude 10° 02:44:13 10° 9° (N) 1,898 ? -30.4°
Enters shadow 02:45:58 24° 3° (N) 1,208 ? -30.2°
